www.pogodaiklimat.ru

Погода и климат >> Архив погоды >> Швейцария >> Халлау


ПОГОДА в Халлау

  • Прогноз погоды в Халлау
  • Монитор погоды в Халлау

АРХИВ ПОГОДЫ в Халлау

Время (UTC), дата Ветер
(напр.,м/с)
 
Видим.   Явления Облачность Т
(С)
Тd
(С)
f
(%)
Тe
(С)
Тes
(С)
Комфортность P
(гПа)
Po
(гПа)
Тmin
(С)
Tmax
(С)
R
(мм)
R24
(мм)
S
(см)
13 13.07 З 1
{7}
н/о н/о +21.9 +9.3 45 +23 +23 комфорт 1016.8 969.0
14 13.07 С 3
{6}
н/о н/о +21.3 +8.1 43 +22 +22 комфорт 1016.6 968.7
15 13.07 С 3
{7}
н/о н/о +22.1 +9.5 45 +24 +24 комфорт 1016.3 968.6
16 13.07 С 2
{6}
н/о н/о +21.6 +9.3 45 +23 +23 комфорт 1016.1 968.3
17 13.07 С 3
{6}
н/о н/о +20.5 +10.3 52 +23 +23 комфорт 1016.4 968.4
18 13.07 С 4
{7}
н/о н/о +20.2 +10.4 53 +22 +22 комфорт 1016.4 968.4 +22.1
19 13.07 С 3
{6}
н/о н/о +18.1 +11.0 63 +19 +19 1017.2 968.8
20 13.07 штиль 0
{3}
н/о н/о +15.3 +11.3 77 +15 +15 1018.3 969.3
21 13.07 С 1
{6}
н/о н/о +16.3 +10.5 69 +17 +17 1018.5 969.7
22 13.07 В 1
{4}
н/о н/о +12.3 +10.7 90 +13 +13 1019.1 969.6
23 13.07 СЗ 2
{4}
н/о н/о +15.1 +10.3 73 +15 +15 1018.4 969.4
00 14.07 СВ 1
{6}
н/о н/о +12.1 +10.5 90 +12 +12 1018.6 969.1
01 14.07 З 1
{2}
н/о н/о +10.9 +9.9 94 +11 +11 1018.5 968.8
02 14.07 штиль 0
{2}
н/о н/о +10.8 +9.9 94 +10 +10 1018.1 968.4
03 14.07 штиль 0
{2}
н/о н/о +10.0 +9.3 95 +9 +9 1017.9 968.0
04 14.07 штиль 0
{2}
н/о н/о +9.8 +9.0 95 +9 +9 1017.7 967.8
05 14.07 СВ 1
{2}
н/о н/о +12.3 +10.3 88 +13 +13 1017.0 967.6
06 14.07 СВ 2
{3}
н/о н/о +14.6 +11.1 80 +15 +15 1016.4 967.4 +9.6
07 14.07 С 3
{4}
н/о н/о +17.7 +12.1 70 +18 +18 1015.9 967.5
08 14.07 В 3
{5}
н/о н/о +19.2 +11.6 61 +21 +21 комфорт 1015.7 967.5
09 14.07 СВ 3
{5}
н/о н/о +20.4 +11.3 56 +23 +23 комфорт 1015.0 967.1
10 14.07 В 3
{6}
н/о н/о +22.0 +10.9 49 +24 +24 комфорт 1014.4 966.8
11 14.07 В 3
{8}
н/о н/о +22.5 +10.4 46 +24 +24 комфорт 1013.9 966.4
12 14.07 В 3
{8}
н/о н/о +21.6 +9.8 47 +23 +23 комфорт 1013.5 965.8
13 14.07 СВ 3
{7}
н/о н/о +23.2 +9.6 42 +25 +25 комфорт 1012.4 965.1
14 14.07 С 6
{9}
н/о н/о +20.2 +11.9 59 +22 +22 комфорт 1013.0 965.1
15 14.07 С 10
{15}
н/о н/о +18.0 +10.8 63 +17 +17 1014.0 965.7
16 14.07 С 9
{15}
н/о н/о +17.8 +11.4 66 +17 +17 1013.7 965.4
17 14.07 С 7
{14}
н/о н/о +17.5 +11.8 69 +17 +17 1014.0 965.6
18 14.07 С 6
{15}
н/о н/о +16.9 +12.2 74 +16 +16 1014.4 965.9 +23.4
19 14.07 С 5
{11}
н/о н/о +16.3 +12.0 76 +15 +15 1014.9 966.3
20 14.07 С 7
{11}
н/о н/о +15.9 +12.2 79 +14 +14 1015.1 966.4
21 14.07 С 7
{12}
н/о н/о +15.9 +12.0 78 +14 +14 1015.0 966.3
22 14.07 СВ 4
{12}
н/о н/о +15.7 +11.5 76 +15 +15 1015.7 966.9
23 14.07 СВ 3
{6}
н/о н/о +15.1 +11.4 79 +15 +15 1015.7 966.8
00 15.07 С 3
{12}
н/о н/о +14.8 +11.3 80 +14 +14 1015.5 966.6
01 15.07 С 4
{7}
н/о н/о +14.4 +10.8 79 +13 +13 1015.1 966.1
02 15.07 СВ 2
{7}
н/о н/о +13.7 +10.5 81 +13 +13 1015.3 966.2
03 15.07 С 3
{7}
н/о н/о +13.6 +10.4 81 +13 +13 1015.0 965.9
04 15.07 С 2
{6}
н/о н/о +13.6 +10.3 80 +13 +13 1015.0 965.9
05 15.07 С 4
{7}
н/о н/о +13.2 +10.4 83 +11 +11 1015.3 966.1
06 15.07 С 5
{7}
н/о н/о +13.3 +10.5 83 +11 +11 1015.9 966.7 +13.1
07 15.07 С 4
{7}
н/о н/о +14.6 +11.1 80 +13 +13 1015.9 966.9
08 15.07 С 5
{10}
н/о н/о +15.3 +11.5 78 +14 +14 1015.9 967.1
09 15.07 С 5
{10}
н/о н/о +16.5 +11.6 73 +16 +16 1015.9 967.3
10 15.07 С 5
{10}
н/о н/о +18.5 +12.1 66 +19 +19 1015.5 967.2
11 15.07 С 7
{10}
н/о н/о +19.6 +12.2 62 +21 +21 комфорт 1015.1 967.0
12 15.07 С 5
{10}
н/о н/о +20.5 +12.3 59 +23 +23 комфорт 1014.7 966.8
13 15.07 С 3
{7}
н/о н/о +21.7 +12.2 55 +24 +24 комфорт 1014.2 966.5
14 15.07
{9}
н/о н/о +21.6 +12.6 57 1014.4 966.7
15 15.07 С 6
{9}
н/о н/о +22.3 +12.7 55 +25 +25 комфорт 1014.2 966.6
16 15.07
{8}
н/о н/о +22.3 +12.9 55 1014.0 966.4
17 15.07
{8}
н/о н/о +22.3 +11.8 51 1014.0 966.4
18 15.07 С 4
{9}
н/о н/о +21.6 +11.8 54 +24 +24 комфорт 1014.5 966.8 +22.8
19 15.07 С 3
{6}
н/о н/о +19.3 +11.9 62 +21 +21 комфорт 1015.3 967.2
20 15.07 С 2
{4}
н/о н/о +16.0 +12.4 79 +16 +16 1016.6 967.8
21 15.07 С 1
{6}
н/о н/о +15.6 +12.0 79 +17 +17 1017.1 968.3
22 15.07 В 1
{3}
н/о н/о +15.8 +12.0 78 +17 +17 1017.4 968.6
23 15.07 СВ 2
{4}
н/о н/о +15.3 +11.8 80 +15 +15 1017.7 968.8
00 16.07 СВ 3
{6}
н/о н/о +15.3 +11.4 78 +15 +15 1017.8 968.9
01 16.07 С 3
{5}
н/о н/о +14.6 +11.1 80 +14 +14 1018.1 969.0
02 16.07 С 3
{5}
н/о н/о +13.3 +10.9 85 +12 +12 1018.4 969.1
03 16.07 С 4
{6}
н/о н/о +13.0 +10.7 86 +11 +11 1018.5 969.1
04 16.07 ЮВ 1
{5}
н/о н/о +11.8 +10.2 90 +12 +12 1018.6 969.0
05 16.07 С 2
{3}
н/о н/о +12.9 +10.8 87 +12 +12 1018.7 969.3
06 16.07 СВ 2
{6}
н/о н/о +15.0 +11.2 78 +15 +15 1018.3 969.3 +11.5
07 16.07 С 1
{2}
н/о н/о +17.1 +11.4 69 +19 +19 1017.9 969.3
08 16.07 ЮВ 1
{3}
н/о н/о +18.5 +12.2 67 +20 +20 1017.6 969.2
09 16.07 В 1
{3}
н/о н/о +20.2 +12.4 61 +24 +24 комфорт 1017.0 968.9
10 16.07 Ю 2
{4}
н/о н/о +21.6 +12.4 56 +24 +24 комфорт 1016.6 968.8
11 16.07 ЮЗ 1
{4}
н/о н/о +23.3 +11.9 49 +26 +26 жарко 1016.0 968.5
12 16.07 СЗ 2
{5}
н/о н/о +24.5 +9.5 39 +25 +25 комфорт 1015.3 968.0
13 16.07 ЮЗ 1
{5}
н/о н/о +25.1 +9.5 37 +26 +26 жарко 1014.6 967.5
14 16.07 Ю 2
{5}
н/о н/о +25.7 +10.9 39 +27 +27 жарко 1014.1 967.1
15 16.07 ЮЗ 2
{5}
н/о н/о +25.8 +10.8 39 +27 +27 жарко 1013.9 966.9
16 16.07 Ю 2
{6}
н/о н/о +25.9 +11.7 41 +27 +27 жарко 1013.6 966.6
17 16.07 З 3
{5}
н/о н/о +25.9 +10.7 38 +27 +27 жарко 1013.4 966.5
18 16.07 ЮЗ 2
{6}
н/о н/о +24.5 +10.0 40 +25 +25 комфорт 1013.8 966.6 +26.1
19 16.07 СЗ 3
{4}
н/о н/о +21.4 +11.1 52 +23 +23 комфорт 1014.5 966.8
20 16.07 С 3
{4}
н/о н/о +19.2 +9.3 53 +20 +20 1015.2 967.1
21 16.07 С 1
{4}
н/о н/о +16.9 +10.8 67 +18 +18 1015.9 967.3
22 16.07 ЮЗ 2
{2}
н/о н/о +16.4 +9.9 65 +17 +17 1016.2 967.5
23 16.07 С 2
{5}
н/о н/о +15.4 +10.0 70 +16 +16 1016.4 967.6
00 17.07 ЮВ 1
{5}
н/о н/о +15.5 +10.9 74 +17 +17 1016.4 967.6
01 17.07 З 1
{2}
н/о н/о +13.3 +10.8 85 +14 +14 1016.6 967.4
02 17.07 штиль 0
{1}
н/о н/о +12.2 +10.6 90 +12 +12 1016.6 967.2
03 17.07 штиль 0
{2}
н/о н/о +11.0 +10.2 95 +10 +10 1016.5 966.9
04 17.07 штиль 0
{1}
н/о н/о +10.2 +9.5 95 +9 +9 1016.7 966.9
05 17.07 штиль 0
{1}
н/о н/о +11.5 +10.8 95 +11 +11 1016.2 966.7
06 17.07 ЮВ 1
{2}
н/о н/о +14.8 +12.0 83 +16 +16 1015.4 966.5 +10.0
07 17.07 Ю 1
{1}
н/о н/о +17.7 +12.1 70 +19 +19 1014.8 966.4
08 17.07 ЮВ 1
{2}
н/о н/о +20.4 +11.6 57 +23 +23 комфорт 1014.1 966.2
09 17.07 Ю 2
{4}
н/о н/о +22.3 +13.0 56 +25 +25 комфорт 1013.5 966.0
10 17.07 ЮЗ 3
{6}
н/о н/о +24.4 +12.5 47 +26 +26 жарко 1012.8 965.6
11 17.07 ЮЗ 4
{7}
н/о н/о +26.2 +10.8 38 +27 +27 жарко 1012.1 965.3
12 17.07 ЮЗ 6
{11}
н/о н/о +27.0 +7.5 29 +27 +27 жарко 1011.5 964.8
13 17.07 ЮЗ 6
{10}
н/о н/о +27.6 +7.5 28 +27 +27 жарко 1011.1 964.5
14 17.07 ЮЗ 5
{11}
н/о н/о +28.1 +5.4 24 +27 +27 жарко 1010.7 964.2
15 17.07 ЮЗ 4
{11}
н/о н/о +28.1 +4.6 22 +27 +27 жарко 1010.5 964.0
16 17.07 ЮЗ 4
{9}
н/о н/о +27.8 +2.9 20 +26 +26 жарко 1010.0 963.5
17 17.07 ЮЗ 4
{8}
н/о н/о +27.1 +3.6 22 +26 +26 жарко 1010.0 963.4
18 17.07 С 2
{11}
н/о н/о +24.9 +10.5 40 +26 +26 жарко 1010.7 963.7 +28.3
19 17.07 С 2
{3}
н/о н/о +20.2 +11.7 58 +23 +23 комфорт 1011.6 963.8
20 17.07 З 1
{2}
н/о н/о +17.6 +12.0 70 +19 +19 1012.5 964.2
21 17.07 В 1
{3}
н/о н/о +15.5 +12.3 81 +16 +16 1013.3 964.6
22 17.07 штиль 0
{1}
н/о н/о +13.7 +11.6 87 +13 +13 1013.8 964.8
23 17.07 Ю 1
{2}
н/о н/о +12.9 +10.9 88 +14 +14 1014.2 965.0
00 18.07 штиль 0
{3}
н/о н/о +11.9 +10.7 92 +11 +11 1014.4 965.0
01 18.07 С 1
{1}
н/о н/о +11.6 +10.6 94 +12 +12 1014.3 964.9
02 18.07 штиль 0
{1}
н/о н/о +12.1 +11.0 93 +11 +11 1014.1 964.8
03 18.07 З 1
{1}
н/о н/о +12.1 +11.2 94 +13 +13 1014.0 964.7
04 18.07 С 2
{2}
н/о н/о +11.4 +10.1 92 +11 +11 1014.3 964.9
05 18.07 штиль 0
{2}
н/о н/о +12.3 +11.5 95 +12 +12 1014.1 964.8
06 18.07 ЮВ 1
{2}
н/о н/о +14.0 +12.2 89 +15 +15 1014.4 965.4 +10.9
07 18.07 ЮЗ 1
{2}
н/о н/о +16.0 +11.7 76 +17 +17 1014.3 965.7
08 18.07 СВ 1
{1}
н/о н/о +18.2 +11.4 64 +20 +20 1014.0 965.7
09 18.07 ЮВ 1
{3}
н/о н/о +21.4 +11.3 53 +23 +23 комфорт 1013.4 965.7
10 18.07 Ю 3
{5}
н/о н/о +23.9 +10.6 43 +25 +25 комфорт 1012.6 965.4
11 18.07 ЮЗ 3
{6}
н/о н/о +25.8 +9.4 35 +26 +26 жарко 1012.1 965.2
12 18.07 ЮЗ 2
{7}
н/о н/о +25.5 +7.5 32 +26 +26 жарко 1012.0 965.1
13 18.07 ЮВ 2
{5}
н/о н/о +26.2 +7.6 31 +26 +26 жарко 1011.6 964.8
14 18.07 ЮЗ 3
{7}
н/о н/о +26.2 +7.3 30 +26 +26 жарко 1011.6 964.8
15 18.07 ЮВ 1
{7}
н/о н/о +26.7 +8.2 31 +27 +27 жарко 1011.1 964.4
16 18.07 С 2
{5}
н/о н/о +27.2 +8.3 30 +27 +27 жарко 1010.8 964.2
17 18.07 ЮЗ 3
{6}
н/о н/о +26.3 +8.9 33 +27 +27 жарко 1011.1 964.3
18 18.07 штиль 0
{7}
н/о н/о +24.4 +12.9 49 +26 +26 жарко 1011.7 964.6 +27.2
19 18.07 С 1
{2}
н/о н/о +20.4 +14.0 67 +24 +24 комфорт 1013.0 965.2
20 18.07 С 1
{1}
н/о н/о +18.3 +14.0 76 +20 +20 1014.0 965.8
21 18.07 штиль 0
{2}
н/о н/о +18.0 +14.2 78 +18 +18 1014.4 966.1
22 18.07 С 1
{2}
н/о н/о +17.2 +13.8 80 +19 +19 1014.9 966.4
23 18.07 СЗ 1
{2}
н/о н/о +16.7 +13.0 79 +18 +18 1015.3 966.7
00 19.07 Ю 1
{2}
н/о н/о +16.4 +13.5 83 +18 +18 1015.4 966.8
01 19.07 штиль 0
{2}
н/о н/о +15.4 +13.2 87 +15 +15 1015.8 967.0
02 19.07 С 1
{2}
н/о н/о +14.4 +12.5 88 +15 +15 1016.1 967.1
03 19.07 С 1
{2}
н/о н/о +13.5 +12.2 92 +14 +14 1016.5 967.3
04 19.07 С 1
{2}
н/о н/о +14.1 +12.6 91 +15 +15 1016.6 967.5
05 19.07 штиль 0
{1}
н/о н/о +14.7 +13.5 93 +14 +14 1016.7 967.7
06 19.07 ЮЗ 1
{2}
н/о н/о +16.5 +13.7 84 +18 +18 1016.6 967.9 +13.3
07 19.07 ЮВ 1
{1}
н/о н/о +18.6 +13.4 72 +21 +21 комфорт 1016.5 968.2
08 19.07 Ю 2
{4}
н/о н/о +21.5 +13.4 60 +24 +24 комфорт 1016.1 968.3
09 19.07 ЮЗ 4
{6}
н/о н/о +23.6 +13.2 52 +26 +26 жарко 1015.7 968.3
10 19.07 ЮЗ 5
{7}
н/о н/о +25.3 +12.1 44 +27 +27 жарко 1015.1 968.0
11 19.07 ЮЗ 4
{9}
н/о н/о +25.9 +12.4 43 +27 +27 жарко 1014.8 967.8
12 19.07 ЮЗ 5
{9}
н/о н/о +26.4 +12.1 41 +28 +28 жарко 1014.5 967.6
13 19.07 ЮЗ 5
{10}
н/о н/о +26.8 +12.0 40 +28 +28 жарко 1014.1 967.3
14 19.07 З 3
{9}
н/о н/о +27.5 +12.0 38 +29 +29 жарко 1013.7 967.0
15 19.07 З 3
{10}
н/о н/о +27.7 +12.2 38 +29 +29 жарко 1013.4 966.7
16 19.07 ЮЗ 4
{7}
н/о н/о +27.4 +11.9 38 +29 +29 жарко 1013.1 966.4
17 19.07 ЮЗ 1
{7}
н/о н/о +26.9 +12.4 41 +28 +28 жарко 1013.1 966.3
18 19.07 ЮЗ 2
{10}
н/о н/о +26.0 +12.7 44 +28 +28 жарко 1013.2 966.3 +27.7
19 19.07 СВ 1
{3}
н/о н/о +21.0 +14.4 66 +25 +25 комфорт 1014.3 966.5
20 19.07 С 2
{2}
н/о н/о +19.1 +13.9 72 +21 +21 комфорт 1015.2 967.0
21 19.07 С 1
{3}
н/о н/о +17.1 +14.2 83 +19 +19 1015.7 967.2
22 19.07 СВ 1
{2}
н/о н/о +17.7 +13.7 77 +19 +19 1016.0 967.6
23 19.07 штиль 0
{2}
н/о н/о +14.8 +13.3 91 +14 +14 1016.6 967.6
00 20.07 штиль 0
{3}
н/о н/о +14.1 +12.8 92 +14 +14 1016.4 967.3
01 20.07 штиль 0
{1}
н/о н/о +13.5 +12.4 93 +13 +13 1016.2 967.0
02 20.07 штиль 0
{1}
н/о н/о +12.5 +11.7 95 +12 +12 1016.3 967.0
03 20.07 штиль 0
{1}
н/о н/о +12.0 +11.3 95 +11 +11 1016.3 966.9
04 20.07 С 1
{1}
н/о н/о +12.1 +11.5 96 +13 +13 1016.4 967.0
05 20.07 штиль 0
{1}
н/о н/о +13.5 +12.7 95 +13 +13 1016.5 967.3
06 20.07 штиль 0
{1}
н/о н/о +16.7 +14.1 85 +17 +17 1016.1 967.5 +11.6
07 20.07 ЮВ 1
{1}
н/о н/о +19.7 +14.0 70 +23 +23 комфорт 1015.7 967.6
08 20.07 Ю 1
{2}
н/о н/о +22.3 +14.5 61 +26 +26 жарко 1015.2 967.6
09 20.07 ЮЗ 2
{4}
н/о н/о +24.2 +15.0 56 +27 +27 жарко 1014.9 967.6
10 20.07 Ю 3
{5}
н/о н/о +25.9 +15.1 51 +29 +29 душно 1014.5 967.5
11 20.07 Ю 3
{6}
н/о н/о +27.9 +15.2 46 +31 +31 душно 1013.9 967.3
12 20.07 ЮЗ 3
{7}
н/о н/о +29.7 +13.9 38 +31 +31 жарко 1013.2 966.9
13 20.07 ЮЗ 5
{9}
н/о н/о +30.8 +12.8 33 +32 +32 жарко 1012.9 966.8

 

Местоположение метеостанции Халлау (Швейцария): широта 47.70 долгота 8.47 высота над уровнем моря 432 м.

В архиве по умолчанию представлена погода в Халлау за последнюю неделю. Архивные данные за месяц целиком и за предыдущие месяцы, начиная с января 2011 года, Вы можете получить, выбрав интересующий диапазон дат из раскрывающегося списка и нажав кнопку "Ввод!".


*Определитесь, кто Вы:
робот инопланетянин человек

Внимание! Время в таблицах - всемирное. Для получения местного времени необходимо прибавить поправку, которая равна 1 ч.

Смотрите также архив погоды в соседних городах и на ближайших метеорологических станциях:

Погода в Тразадингене (Швейцария) (4 км)
Погода в Шаффхаузене (Швейцария) (11 км)
Погода на Бецнау (Швейцария) (23 км)
Погода в Лайбштадте (Швейцария) (24 км)
Погода в Цюрих аэропорту (Швейцария) (25 км)
Погода на Легерне (Швейцария) (25 км)
Погода в Институте Пауля Шеррера (Швейцария) (26 км)
Погода в Реккенхольце (Швейцария) (30 км)
Погода в Бругг-Вилдегге (Швейцария) (34 км)
Погода в Лауфенбурге (Швейцария) (36 км)

Пояснения к столбцам:

Ветер - указаны скорость ветра в м/с - средняя за 10 мин, порывы в срок и между сроками (в фигурных скобках) и направление, откуда дует ветер: С - северный, СВ - северо-восточный, В - восточный, ЮВ - юго-восточный, Ю - южный, ЮЗ - юго-западный, З - западный, СЗ - северо-западный.
Видимость - горизонтальная дальность видимости в метрах или километрах. При видимости от 1 до 10 км при отсутствии осадков обычно наблюдается дымка, при ухудшении видимости до 1 км и менее - туман. В сухую погоду видимость может ухудшаться дымом, пылью или мглою.
Явления - указаны атмосферные явления, наблюдавшиеся в срок или в последний час перед сроком; фигурными скобками обозначены явления, наблюдавшиеся между сроками (за 1-3 часа до срока); квадратными скобками обозначены град или гололедные отложения с указанием их диаметра в мм.
Облачность - указаны через наклонную черту общая и нижняя облачность в баллах и высота нижней границы облаков в метрах; квадратными скобками обозначены формы облаков: Ci - перистые, Cs - перисто-слоистые, Cc - перисто-кучевые, Ac - высококучевые, As - высокослоистые, Sc - слоисто-кучевые, Ns - слоисто-дождевые, Cu - кучевые, Cb - кучево-дождевые. Подробнее классификацию облаков см. в Атласе облаков (PDF).
T - Температура воздуха - температура, измеренная на высоте 2 м над землей.
Td - Температура точки росы - температура, при понижении до которой содержащийся в воздухе водяной пар достигнет насыщения.
f - Относительная влажность воздуха - влажноcть воздуха, измеренная на высоте 2 м над землей.
Te - Эффективная температура - температура, которую ощущает одетый по сезону человек в тени. Характеристика душности погоды. При расчете учитывается влияние влажности воздуха и скорости ветра на теплоощущения человека.
Tes - Эффективная температура на солнце - температура, которую ощущает человек, с поправкой на солнечный нагрев. Характеристика знойности погоды. Зависит от высоты солнца над горизонтом, облачности и скорости ветра. Ночью, в пасмурную погоду, а также при ветре 12 м/с и более поправка равна нулю.
P - Атмосферное давление - приведенное к уровню моря атмосферное давление.
Po - Атмосферное давление - измеренное на уровне метеостанции атмосферное давление.
Tmin - Минимальная температура - минимум температуры воздуха на высоте 2 м над землей.
Tmax - Максимальная температура - максимум температуры воздуха на высоте 2 м над землей.
R - Количество осадков - Количество выпавших осадков за период времени, мм. При наведении курсора мыши на число - период времени, за который выпало указанное количество осадков.
R24 - Количество осадков - Количество выпавших осадков за 24 часа, мм.
S - Снежный покров - Высота снежного покрова, см. При наведении курсора мыши на число - состояние снежного покрова и степень покрытия местности в баллах.